Location: Unspecified
(64.9000°N, 0.0000°E)
Time: 00:30:23
(UTC+00:00)

Altair - All Passes

Search period start: 16 June 2019 00:00
Search period end: 26 June 2019 00:00
Orbit: 1501 x 1683 km, 47.2° (Epoch: 14 June)

Date Brightness Start Highest point End Pass type
(mag) Time Alt. Az. Time Alt. Az. Time Alt. Az.
16 Jun - 01:33:27 10° WSW 01:41:08 26° SSW 01:48:56 10° SE daylight
16 Jun - 03:37:33 10° WSW 03:43:09 17° SW 03:48:47 10° S daylight
16 Jun - 21:06:06 10° S 21:11:43 17° SE 21:17:25 10° ESE daylight
16 Jun - 23:06:05 10° SW 23:13:43 27° SSE 23:21:31 10° ESE daylight
17 Jun - 01:08:24 10° WSW 01:16:06 27° SSW 01:23:58 10° SE daylight
17 Jun - 03:12:18 10° WSW 03:18:11 17° SW 03:24:05 10° S daylight
17 Jun - 20:41:29 10° S 20:46:45 16° SE 20:52:07 10° ESE daylight
17 Jun - 22:41:09 10° SW 22:48:41 26° SSE 22:56:23 10° ESE daylight
18 Jun - 00:43:21 10° WSW 00:51:05 27° S 00:58:58 10° SE daylight
18 Jun - 02:47:05 10° WSW 02:53:11 18° SW 02:59:21 10° S daylight
18 Jun - 20:16:54 10° S 20:21:48 15° SE 20:26:47 10° ESE daylight
18 Jun - 22:16:14 10° SSW 22:23:40 25° SSE 22:31:17 10° ESE daylight
19 Jun - 00:18:18 10° WSW 00:26:03 27° S 00:33:58 10° SE daylight
19 Jun - 02:21:54 10° WSW 02:28:12 19° SSW 02:34:35 10° S daylight
19 Jun - 19:52:22 10° SSE 19:56:51 14° SE 20:01:25 10° ESE daylight
19 Jun - 21:51:20 10° SSW 21:58:40 25° SSE 22:06:09 10° ESE daylight
19 Jun - 23:53:16 10° WSW 00:01:01 27° S 00:08:57 10° SE daylight
20 Jun - 01:56:44 10° WSW 02:03:13 20° SSW 02:09:47 10° S daylight
20 Jun - 19:27:56 10° SSE 19:31:55 13° SE 19:35:58 10° ESE daylight
20 Jun - 21:26:27 10° SSW 21:33:39 24° SSE 21:41:01 10° ESE daylight
20 Jun - 23:28:15 10° WSW 23:36:00 28° S 23:43:56 10° SE daylight
21 Jun - 01:31:35 10° WSW 01:38:13 21° SSW 01:44:58 10° SSE daylight
21 Jun - 19:03:36 10° SSE 19:06:59 12° SE 19:10:26 10° ESE daylight
21 Jun - 21:01:34 10° SSW 21:08:39 24° SSE 21:15:54 10° ESE daylight
21 Jun - 23:03:14 10° SW 23:10:58 28° S 23:18:54 10° SE daylight
22 Jun - 01:06:27 10° WSW 01:13:14 21° SSW 01:20:07 10° SSE daylight
22 Jun - 18:39:26 10° SSE 18:42:04 11° SE 18:44:43 10° ESE daylight
22 Jun - 20:36:44 10° SSW 20:43:39 23° SSE 20:50:45 10° ESE daylight
22 Jun - 22:38:14 10° SW 22:45:56 28° S 22:53:51 10° SE daylight
23 Jun - 00:41:20 10° WSW 00:48:14 22° SSW 00:55:15 10° SSE daylight
23 Jun - 02:48:23 10° WSW 02:49:47 10° SW 02:51:12 10° SW daylight
23 Jun - 18:15:44 10° SE 18:17:09 10° SE 18:18:35 10° ESE daylight
23 Jun - 20:11:54 10° SSW 20:18:40 22° SSE 20:25:36 10° ESE daylight
23 Jun - 22:13:14 10° SW 22:20:55 28° S 22:28:48 10° SE daylight
24 Jun - 00:16:13 10° WSW 00:23:14 23° SSW 00:30:22 10° SSE daylight
24 Jun - 02:22:17 10° WSW 02:24:52 11° SW 02:27:28 10° SSW daylight
24 Jun - 19:47:05 10° SSW 19:53:40 21° SSE 20:00:25 10° ESE daylight
24 Jun - 21:48:15 10° SW 21:55:53 28° S 22:03:45 10° SE daylight
24 Jun - 23:51:07 10° WSW 23:58:13 23° SSW 00:05:28 10° SSE daylight
25 Jun - 01:56:37 10° WSW 01:59:56 12° SW 02:03:17 10° SSW daylight
25 Jun - 19:22:17 10° SSW 19:28:41 20° SSE 19:35:14 10° ESE daylight
25 Jun - 21:23:16 10° SW 21:30:52 27° S 21:38:41 10° ESE daylight
25 Jun - 23:26:02 10° WSW 23:33:13 24° SSW 23:40:33 10° SSE daylight
